Wind_Speed
20 18 18 19 18 16 14 13 12 14 14 17 18 19 20 20 21 21 22 21 19 17 15 14 13 12 14 18 18 16 15 13 12 11 11 9 7 7 6 4 3 3 4
20 18 19 21 18 15 14 14 13 14 15 17 20 20 19 20 20 20 21 20 19 18 17 14 13 13 15 19 19 18 15 14 13 11 11 9 7 7 7 5 5 4 4
21 19 20 21 20 15 13 14 15 15 16 17 18 20 18 18 18 18 19 20 20 17 15 13 13 14 16 19 21 20 17 15 14 12 11 9 8 8 8 6 5 5 3
23 21 21 21 20 16 13 15 16 17 16 16 17 18 17 15 16 16 17 19 20 17 14 13 14 15 16 18 21 20 19 17 14 12 11 10 9 9 9 7 6 5 4
23 22 22 22 19 16 15 16 17 17 16 15 16 16 15 15 15 15 15 17 18 17 15 14 15 14 14 17 19 20 20 18 15 14 14 13 12 11 11 8 6 5 5
22 22 23 23 21 18 17 17 18 18 16 15 15 15 14 14 14 14 14 14 16 17 16 16 16 15 14 15 16 18 19 20 19 18 17 16 16 14 13 10 7 5 5
23 22 23 25 24 22 19 18 18 19 16 15 14 15 14 13 13 14 14 14 15 15 17 17 16 15 14 14 15 15 16 17 19 19 19 19 18 17 14 11 8 7 6
27 26 25 26 26 23 20 17 18 19 17 16 15 15 13 12 12 12 14 14 15 15 16 17 17 16 15 14 14 13 13 13 14 16 16 16 16 16 15 13 11 9 8
31 29 27 27 27 24 21 19 18 19 19 18 17 16 15 13 12 12 13 13 14 14 15 17 18 18 16 16 15 14 13 12 13 13 12 12 11 12 13 13 12 11 10
34 32 28 27 27 26 23 23 21 19 19 21 20 18 17 16 14 12 11 11 11 12 14 16 18 19 19 18 17 17 16 15 14 14 13 12 11 11 12 14 15 15 15
33 32 29 27 26 24 24 24 23 21 20 22 23 20 19 18 18 15 12 10 9 9 10 13 16 19 20 20 19 18 18 17 15 14 14 14 14 13 14 17 19 19 18
30 29 27 26 25 23 22 21 22 21 21 21 23 23 21 21 22 19 16 12 10 9 8 9 11 15 18 20 20 20 19 19 17 15 15 15 15 15 15 17 18 19 20
25 25 25 25 24 23 23 22 22 21 22 21 21 25 25 23 24 23 20 17 14 12 11 10 10 11 13 16 18 19 19 18 17 16 15 14 14 15 16 17 18 19 20
22 21 22 21 23 25 26 26 25 25 24 22 23 26 26 25 26 27 24 21 19 17 16 15 14 13 13 14 15 17 17 16 16 15 15 14 14 15 15 16 17 18 19
20 19 18 17 18 20 23 24 25 25 25 24 26 29 30 30 29 29 28 25 23 22 21 18 18 17 17 17 17 17 17 16 16 16 16 16 16 16 16 15 15 15 16
18 18 18 17 16 16 17 18 20 21 22 23 26 30 33 34 35 33 30 28 26 25 23 21 19 19 19 19 19 19 19 18 17 17 17 18 19 18 18 17 17 17 17
17 17 16 17 16 15 16 16 18 19 21 23 24 27 33 36 37 37 34 32 29 28 26 23 22 21 20 20 20 19 20 20 20 18 18 18 18 19 19 19 19 19 19
17 17 17 17 17 17 16 17 17 19 20 21 23 25 30 36 37 38 35 33 32 30 27 24 23 23 22 21 22 22 21 21 22 21 20 19 19 18 18 18 19 20 19
18 18 18 19 19 20 20 19 19 21 21 22 23 23 25 33 38 37 35 33 32 31 29 26 24 24 24 23 24 25 25 24 24 23 22 22 22 21 20 20 20 21 21
19 19 20 21 22 22 22 22 22 22 22 22 22 23 23 28 36 39 36 34 33 32 32 29 27 26 27 26 26 26 25 25 25 26 25 25 24 24 23 23 22 23 24
18 19 20 21 22 23 23 23 23 22 22 22 21 20 18 20 30 37 37 35 32 31 31 30 28 28 28 30 30 29 28 28 28 30 30 29 27 26 26 25 25 25 25
20 21 21 22 23 23 24 25 25 24 23 23 21 19 18 18 20 27 34 35 33 32 32 32 30 29 29 31 31 30 30 30 31 32 31 31 30 29 29 29 29 29 28
24 24 24 25 25 24 24 24 25 26 25 24 23 21 20 20 20 21 26 31 31 30 30 30 30 29 30 30 31 31 30 30 31 33 34 33 32 31 31 31 31 31 30
24 24 24 25 25 25 24 24 25 26 26 26 25 24 23 23 23 23 23 25 26 27 28 29 29 30 30 30 30 29 28 28 28 29 33 31 31 31 31 31 31 31 31
24 23 24 24 23 24 24 25 26 26 27 27 28 27 26 26 26 26 26 27 26 26 27 28 29 29 30 31 30 30 29 29 29 29 31 29 29 30 30 30 31 31 31
20 20 21 21 21 22 23 24 25 25 26 26 27 28 28 26 25 26 27 28 29 29 28 28 28 28 29 30 31 31 31 31 31 30 32 31 30 32 31 32 33 33 32
Wind_Direction
327 320 323 325 309 292 276 259 248 242 241 242 239 237 240 243 246 247 246 245 244 245 252 254 246 237 222 210 205 202 202 205 205 200 197 209 237 263 268 273 282 274 262
327 317 317 328 321 298 277 260 251 242 239 242 242 241 245 248 248 246 243 242 240 244 250 248 239 229 218 214 211 211 212 215 213 207 205 221 247 272 270 267 274 263 250
326 317 311 318 322 307 282 262 253 249 245 244 243 242 249 252 249 244 242 240 237 240 245 239 233 223 214 215 215 216 217 219 216 212 216 231 253 280 275 270 267 257 230
322 316 314 315 316 306 284 264 256 255 252 251 248 246 252 253 251 245 241 237 234 236 239 230 221 218 215 215 214 217 219 221 219 218 224 237 257 281 278 277 265 247 211
315 312 311 315 313 300 282 268 258 256 256 254 248 245 250 253 254 248 239 236 235 238 237 224 215 214 216 216 218 222 224 225 225 225 229 240 257 276 278 275 261 233 215
306 305 306 311 311 301 281 266 256 254 253 251 245 244 251 255 259 250 241 244 240 240 237 225 216 216 219 221 222 225 227 230 233 235 238 247 257 267 270 264 247 224 218
301 299 298 301 302 300 282 261 249 249 248 245 244 246 251 255 261 249 241 246 244 241 234 226 220 220 226 228 226 226 229 233 238 243 248 252 255 256 255 246 233 226 230
298 296 294 293 293 293 280 255 241 241 241 241 244 245 245 247 256 248 242 246 246 240 228 223 222 221 227 231 229 229 231 234 238 241 244 247 247 245 240 231 231 238 251
294 294 292 289 287 285 273 254 237 235 235 237 238 238 236 241 247 246 243 245 245 240 228 220 219 219 225 233 233 228 226 228 229 231 233 235 239 238 233 229 233 244 259
293 291 289 286 283 276 265 256 243 236 235 233 234 235 232 233 236 239 240 243 243 240 233 224 219 220 223 229 230 228 228 230 233 236 236 237 243 246 244 242 244 252 263
289 287 284 281 278 268 258 254 245 239 238 236 234 235 231 229 229 233 237 239 240 239 237 233 228 225 225 227 230 233 237 241 245 248 249 249 251 254 254 252 252 255 261
289 283 277 274 271 263 256 252 242 243 244 240 236 236 233 232 228 229 234 234 232 232 232 234 234 231 230 230 233 237 241 244 248 250 252 252 251 254 255 255 256 256 258
291 282 275 270 263 258 255 254 250 252 251 246 245 242 239 236 233 230 232 233 231 231 233 234 236 238 236 234 235 237 239 241 243 245 247 249 252 255 257 258 259 259 259
287 282 278 271 258 251 252 255 255 256 254 252 254 250 242 242 239 235 233 232 231 231 233 236 237 239 240 240 239 239 239 239 242 247 250 255 259 262 263 264 264 261 258
281 283 283 278 265 253 252 257 260 259 255 257 258 252 243 238 241 239 234 231 232 234 235 237 239 240 238 239 240 242 242 242 245 251 257 260 261 263 265 265 263 260 257
280 281 279 280 273 262 260 263 264 261 258 262 263 255 245 239 239 239 235 231 232 234 236 237 239 240 241 240 240 242 245 246 247 252 259 260 259 259 261 260 260 261 262
279 278 277 277 275 270 269 271 268 266 268 269 269 260 248 242 240 237 236 233 233 236 237 238 238 240 243 245 244 243 247 249 248 250 255 257 256 256 257 260 263 265 266
277 274 274 273 273 273 273 273 269 270 275 272 273 269 253 244 240 236 236 235 232 232 233 237 239 241 243 244 245 245 248 251 252 251 252 252 253 255 257 260 264 265 263
278 271 271 274 275 275 274 271 270 270 274 274 273 276 266 246 236 231 232 233 233 232 232 236 239 245 247 246 248 249 250 252 255 256 255 255 256 259 261 261 265 263 263
281 272 269 271 274 276 275 271 268 270 273 275 275 274 273 249 233 227 226 230 234 235 236 240 245 249 250 249 251 253 255 256 255 256 258 259 261 263 264 264 264 262 264
283 275 271 269 269 270 271 271 269 270 272 274 278 274 271 252 232 226 226 229 232 234 238 243 248 250 251 253 254 255 258 260 257 254 256 259 261 263 264 262 263 263 263
284 279 274 271 269 267 268 268 267 265 265 267 269 269 260 252 242 234 229 229 232 237 241 245 248 250 254 255 256 257 260 261 256 253 254 257 260 263 265 265 263 263 261
286 283 277 273 271 269 269 269 268 264 261 260 260 260 257 253 252 248 238 235 237 243 246 247 249 249 252 254 258 261 263 263 258 254 254 256 259 262 266 266 262 261 261
284 282 278 274 273 271 270 268 266 263 260 256 254 252 252 253 254 253 249 247 249 250 250 251 252 253 253 254 257 261 264 262 259 256 257 258 260 261 262 262 259 260 262
280 276 274 275 274 271 268 266 263 260 258 255 254 251 249 249 251 251 250 250 251 252 254 255 254 252 252 252 253 256 258 260 259 259 261 260 259 257 256 256 256 258 263
279 275 274 274 274 271 268 265 263 260 257 255 254 253 252 252 252 251 250 249 250 251 252 252 253 253 253 253 251 252 256 260 261 259 260 259 255 255 254 254 256 258 262
Height
5860 5859 5859 5857 5855 5855 5856 5856 5857 5857 5858 5859 5860 5861 5862 5863 5864 5866 5868 5869 5871 5872 5874 5875 5875 5876 5878 5880 5882 5884 5887 5890 5892 5895 5896 5897 5898 5899 5900 5901 5901 5901 5901
5857 5856 5856 5855 5853 5852 5853 5854 5855 5855 5855 5856 5857 5858 5859 5860 5861 5862 5864 5866 5868 5869 5871 5872 5873 5874 5876 5878 5881 5883 5886 5889 5891 5893 5895 5896 5897 5897 5898 5899 5899 5900 5900
5854 5853 5853 5853 5851 5850 5850 5851 5852 5853 5853 5853 5853 5855 5855 5856 5857 5858 5860 5862 5864 5866 5868 5869 5870 5872 5874 5877 5880 5882 5885 5887 5889 5891 5893 5895 5896 5896 5897 5897 5897 5897 5898
5851 5851 5850 5849 5849 5848 5848 5848 5849 5850 5850 5851 5851 5852 5852 5853 5854 5855 5857 5859 5861 5863 5864 5866 5867 5870 5872 5875 5878 5881 5883 5886 5887 5889 5891 5893 5894 5894 5895 5896 5895 5895 5896
5849 5848 5847 5845 5845 5845 5845 5845 5845 5846 5847 5848 5848 5849 5850 5850 5851 5852 5854 5855 5858 5860 5861 5863 5865 5867 5870 5873 5876 5878 5880 5883 5884 5887 5889 5891 5892 5893 5894 5895 5894 5894 5895
5846 5845 5844 5842 5841 5841 5842 5842 5842 5843 5843 5844 5845 5846 5847 5848 5849 5850 5851 5853 5855 5857 5859 5861 5863 5866 5868 5870 5872 5875 5877 5879 5881 5884 5886 5888 5890 5891 5892 5893 5893 5893 5893
5842 5842 5840 5838 5837 5837 5837 5837 5838 5839 5840 5840 5841 5842 5844 5845 5846 5847 5849 5850 5852 5854 5856 5859 5862 5864 5867 5868 5870 5872 5874 5876 5878 5880 5882 5885 5887 5888 5890 5891 5892 5892 5893
5837 5836 5835 5833 5833 5833 5832 5833 5833 5834 5836 5837 5838 5839 5841 5843 5843 5845 5846 5847 5849 5850 5852 5856 5859 5862 5864 5866 5868 5870 5872 5874 5876 5877 5879 5882 5883 5885 5887 5889 5890 5891 5892
5830 5829 5828 5827 5827 5828 5828 5828 5828 5829 5831 5833 5835 5836 5838 5840 5841 5842 5843 5845 5846 5847 5849 5852 5855 5859 5861 5863 5865 5868 5870 5872 5874 5876 5877 5879 5881 5882 5885 5886 5888 5889 5889
5822 5821 5821 5820 5820 5821 5822 5823 5823 5825 5826 5828 5830 5832 5835 5837 5839 5840 5842 5843 5844 5845 5847 5849 5851 5855 5858 5860 5863 5865 5868 5870 5872 5873 5874 5875 5877 5879 5881 5883 5884 5886 5886
5814 5813 5813 5812 5812 5813 5815 5816 5817 5819 5821 5823 5824 5827 5831 5833 5835 5837 5839 5841 5843 5844 5845 5847 5849 5852 5854 5857 5859 5862 5864 5866 5868 5869 5870 5872 5873 5875 5877 5879 5881 5882 5883
5806 5806 5805 5805 5804 5806 5807 5809 5811 5813 5816 5818 5820 5822 5825 5829 5831 5834 5836 5838 5840 5842 5843 5845 5847 5849 5851 5853 5855 5858 5860 5862 5864 5866 5867 5869 5870 5871 5873 5875 5876 5878 5878
5799 5798 5798 5798 5798 5800 5801 5804 5806 5808 5810 5812 5815 5818 5820 5824 5827 5830 5833 5835 5838 5839 5840 5842 5843 5845 5847 5849 5851 5854 5856 5858 5860 5863 5864 5866 5866 5868 5869 5870 5871 5872 5873
5793 5792 5791 5791 5792 5794 5796 5798 5800 5803 5805 5807 5811 5812 5814 5817 5822 5825 5829 5832 5834 5836 5837 5839 5840 5842 5844 5846 5848 5850 5852 5855 5857 5859 5861 5862 5862 5863 5864 5865 5865 5867 5868
5788 5787 5786 5786 5787 5788 5790 5792 5794 5796 5799 5801 5804 5807 5809 5811 5814 5819 5822 5826 5830 5832 5833 5834 5836 5838 5840 5842 5844 5846 5848 5851 5853 5855 5856 5857 5858 5859 5859 5860 5861 5862 5863
5783 5782 5782 5783 5783 5785 5786 5787 5788 5790 5792 5795 5797 5799 5802 5805 5807 5811 5816 5819 5823 5827 5829 5830 5833 5834 5836 5838 5840 5842 5844 5846 5848 5850 5851 5853 5854 5854 5855 5856 5857 5858 5858
5779 5779 5779 5779 5780 5781 5782 5783 5784 5785 5787 5788 5789 5790 5793 5798 5800 5803 5808 5812 5817 5821 5823 5825 5828 5829 5831 5832 5835 5837 5838 5840 5842 5844 5846 5848 5849 5850 5851 5852 5852 5853 5853
5775 5775 5775 5776 5776 5777 5778 5779 5779 5781 5782 5783 5783 5783 5784 5788 5791 5794 5799 5804 5809 5813 5817 5819 5821 5823 5825 5827 5829 5831 5834 5835 5837 5839 5841 5843 5844 5845 5846 5847 5847 5847 5848
5770 5771 5771 5771 5772 5772 5773 5774 5775 5776 5777 5777 5777 5776 5775 5778 5782 5786 5791 5797 5801 5805 5809 5812 5814 5817 5819 5822 5823 5825 5828 5830 5832 5833 5835 5837 5838 5839 5840 5840 5841 5841 5842
5766 5766 5766 5766 5766 5766 5767 5767 5769 5770 5770 5771 5770 5770 5769 5769 5773 5778 5784 5789 5794 5797 5801 5804 5807 5809 5812 5814 5817 5818 5821 5823 5826 5827 5827 5829 5830 5832 5833 5834 5834 5835 5835
5761 5761 5760 5759 5759 5760 5760 5760 5761 5762 5763 5764 5764 5764 5764 5764 5767 5771 5777 5782 5786 5790 5793 5796 5799 5802 5804 5806 5809 5811 5814 5815 5817 5818 5819 5821 5822 5824 5825 5826 5827 5828 5828
5756 5755 5754 5753 5753 5753 5753 5753 5753 5755 5756 5757 5758 5759 5760 5761 5763 5766 5770 5775 5779 5783 5786 5789 5792 5794 5796 5798 5800 5803 5805 5806 5808 5809 5810 5812 5814 5816 5818 5818 5819 5820 5820
5749 5748 5747 5746 5746 5746 5746 5746 5746 5747 5749 5750 5752 5753 5755 5757 5759 5761 5764 5768 5772 5775 5778 5781 5784 5787 5789 5791 5792 5794 5796 5797 5799 5800 5800 5803 5805 5808 5809 5810 5811 5811 5812
5741 5740 5739 5739 5739 5739 5738 5739 5739 5740 5741 5743 5745 5747 5750 5752 5754 5756 5759 5762 5764 5767 5770 5774 5777 5780 5782 5783 5784 5785 5786 5788 5790 5791 5791 5795 5797 5799 5800 5801 5802 5803 5803
5734 5733 5732 5731 5731 5731 5731 5731 5731 5732 5734 5736 5738 5740 5743 5745 5748 5750 5753 5756 5758 5760 5763 5765 5768 5771 5773 5775 5776 5777 5778 5779 5781 5783 5783 5786 5789 5790 5791 5792 5794 5795 5796
5727 5726 5725 5724 5723 5723 5723 5723 5723 5725 5726 5728 5730 5732 5735 5738 5740 5742 5746 5749 5751 5753 5756 5758 5760 5762 5764 5766 5767 5769 5770 5771 5772 5775 5775 5777 5780 5781 5783 5784 5785 5786 5788